Tracking 22882 objects as of 18-Apr-2021
HD Live streaming from Space Station
objects crossing your sky now

COSMOS 510

Track COSMOS 510 now!
10-day predictions
COSMOS 510 is classified as:


NORAD ID: 6123
Int'l Code: 1972-057G
Perigee: 1,501.9 km
Apogee: 1,516.7 km
Inclination: 74.0 °
Period: 116.0 minutes
Semi major axis: 7880 km
RCS: 0.6741 m2 (medium)
Launch date: July 20, 1972
Source: Commonwealth of Independent States (former USSR) (CIS)
Launch site: PLESETSK MISSILE AND SPACE COMPLEX (PKMTR)
aabbcc
Your satellite tracking list
Your tracking list is empty




NASA's NSSDC Master Catalog

Two Line Element Set (TLE):
1 06123U 72057G   21108.41904657 -.00000015  00000-0  25388-5 0  9999
2 06123  74.0307 356.2817 0009395 223.1760 309.9589 12.41039752208359
Source of the keplerian elements: AFSPC